Regional Weather Roundup
Issued by NWS Little Rock, AR

Home | Current Version | Previous Version | Graphics & Text | Print | Product List | Glossary On
Versions: 1 2 3 4 5 6 7 8 9 10 11 12 13 14 15 16 17 18 19 20 21 22 23 24 25 26 27 28 29 30 31 32 33 34 35 36 37 38 39 40 41 42 43 44 45 46 47 48 49 50
000
ASUS44 KLZK 090605
RWRLZK

WEATHER ROUNDUP FOR ARKANSAS
NATIONAL WEATHER SERVICE LITTLE ROCK AR
1200 AM CST FRI DEC 09 2016

NOTE: "FAIR" INDICATES FEW OR NO CLOUDS BELOW 12,000 FEET WITH NO
SIGNIFICANT WEATHER AND/OR OBSTRUCTIONS TO VISIBILITY.

ARZ001-003-010-029-090700-
NORTHWEST ARKANSAS

CITY           SKY/WX    TMP DP  RH WIND       PRES   REMARKS
FAYETTEVILLE   CLEAR     19  12  74 VRB3      30.64R
6HR MIN TEMP:  19; 6HR MAX TEMP:  25;

FORT SMITH     CLEAR     25  13  60 NW5       30.68R WCI  19
6HR MIN TEMP:  25; 6HR MAX TEMP:  32;

HARRISON       CLEAR     19  13  77 NW5       30.61S WCI  12
6HR MIN TEMP:  19; 6HR MAX TEMP:  26;

BENTONVILLE    CLEAR     19   9  63 CALM      30.64R
6HR MIN TEMP:  19; 6HR MAX TEMP:  27;

ROGERS         CLEAR     19  13  77 N3        30.64R
6HR MIN TEMP:  19; 6HR MAX TEMP:  25;

SILOAM SPGS    CLEAR     18  10  73 CALM      30.64R
6HR MIN TEMP:  18; 6HR MAX TEMP:  25;

HIGHFILL       CLEAR     18  11  74 N5        30.63R WCI  11
6HR MIN TEMP:  16; 6HR MAX TEMP:  24;

$$

ARZ004-005-016-090700-
NORTH CENTRAL ARKANSAS

CITY           SKY/WX    TMP DP  RH WIND       PRES   REMARKS
BATESVILLE     CLEAR     27  12  54 NW8       30.65R WCI  18
6HR MIN TEMP:  27; 6HR MAX TEMP:  32;

FLIPPIN        CLEAR     25  12  58 NW8       30.61R WCI  16
6HR MIN TEMP:  25; 6HR MAX TEMP:  30;

MTN HOME       CLEAR     22  13  68 N7        30.62R WCI  13
6HR MIN TEMP:  22; 6HR MAX TEMP:  28;

$$

ARZ040-041-090700-
WEST CENTRAL ARKANSAS

CITY           SKY/WX    TMP DP  RH WIND       PRES   REMARKS
MENA           CLEAR     30  14  51 N6        30.62R WCI  24
$$

ARZ009-017-025-026-028-090700-
NORTHEAST ARKANSAS

CITY           SKY/WX    TMP DP  RH WIND       PRES   REMARKS
CORNING        FAIR      27  16  63 N9        30.64R WCI  17
JONESBORO      CLEAR     28  16  60 NW6       30.62R WCI  22
6HR MIN TEMP:  28; 6HR MAX TEMP:  32;

NEWPORT        CLEAR     26  17  68 NW12      30.65  WCI  16
6HR MIN TEMP:  25; 6HR MAX TEMP:  30;

WALNUT RIDGE   CLEAR     27  14  59 NW9       30.63S WCI  17
6HR MIN TEMP:  27; 6HR MAX TEMP:  30;

BLYTHEVILLE    CLEAR     26  20  77 N10       30.61R WCI  16
6HR MIN TEMP:  26; 6HR MAX TEMP:  32;

$$

ARZ022-023-033-042-044-090700-
CENTRAL ARKANSAS

CITY           SKY/WX    TMP DP  RH WIND       PRES   REMARKS
LITTLE ROCK    PTCLDY    28  14  55 N12       30.65R WCI  18
6HR MIN TEMP:  27; 6HR MAX TEMP:  34;

N LITTLE ROCK    N/A     27  14  56 N5        30.67R WCI  22
6HR MIN TEMP:  27; 6HR MAX TEMP:  33;

JACKSONVILLE   CLEAR     28  13  55 NW3       30.63S
6HR MIN TEMP:  28; 6HR MAX TEMP:  35;

SEARCY         CLEAR     27  16  63 N8        30.65S WCI  19
6HR MIN TEMP:  26; 6HR MAX TEMP:  34;

HOT SPRINGS    CLEAR     30  13  49 N3        30.63R
6HR MIN TEMP:  28; 6HR MAX TEMP:  35;

RUSSELLVILLE   CLEAR     26  13  57 CALM      30.64S
6HR MIN TEMP:  24; 6HR MAX TEMP:  35;

CLINTON        FAIR      27  16  63 CALM      30.64S
$$

ARZ036-090700-
EAST ARKANSAS

CITY           SKY/WX    TMP DP  RH WIND       PRES   REMARKS
WEST MEMPHIS   CLEAR     29  18  63 N7        30.60R WCI  22
6HR MIN TEMP:  26; 6HR MAX TEMP:  32;

$$

ARZ050-053-066-070-073-090700-
SOUTHWEST ARKANSAS

CITY           SKY/WX    TMP DP  RH WIND       PRES   REMARKS
ARKADELPHIA    FAIR      27  15  61 CALM      30.66R
6HR MIN TEMP:  27; 6HR MAX TEMP:  36;

CAMDEN         CLEAR     25  21  86 CALM      30.66R
TEXARKANA      CLEAR     29  16  58 NW3       30.65R
6HR MIN TEMP:  28; 6HR MAX TEMP:  37;

EL DORADO      CLEAR     28  24  85 CALM      30.64R
6HR MIN TEMP:  27; 6HR MAX TEMP:  39; 6HR PCP: TRACE;

DE QUEEN       CLEAR     23  21  92 CALM      30.65R
6HR MIN TEMP:  23; 6HR MAX TEMP:  35;

$$

ARZ056-057-069-090700-
SOUTHEAST ARKANSAS

CITY           SKY/WX    TMP DP  RH WIND       PRES   REMARKS
PINE BLUFF     CLEAR     29  18  63 N8        30.64R WCI  21
6HR MIN TEMP:  27; 6HR MAX TEMP:  35;

STUTTGART      CLEAR     28  16  59 NW6       30.64R WCI  22
6HR MIN TEMP:  28; 6HR MAX TEMP:  34;

MONTICELLO     CLEAR     30  18  60 VRB3      30.62R
6HR MIN TEMP:  29; 6HR MAX TEMP:  36;


$$





USA.gov is the U.S. government's official web portal to all federal, state and local government web resources and services.